Regional Weather Roundup
Issued by NWS

Home | Current Version | Previous Version | Text Only | Print | Product List | Glossary On
Versions: 1 2 3 4 5 6 7 8 9 10 11 12 13 14 15 16 17 18 19 20 21 22 23 24 25 26 27 28 29 30 31 32 33 34 35 36 37 38 39 40 41 42 43 44 45 46 47 48 49 50
776
ASUS44 KJAN 151610
RWRMS

MISSISSIPPI HOURLY WEATHER ROUNDUP
NATIONAL WEATHER SERVICE JACKSON MS
1100 AM CDT MON SEP 15 2014

NOTE: "FAIR: INDICATES FEW OR NO CLOUDS BELOW 12,000 FEET WITH NO
SIGNIFICANT WEATHER AND/OR OBSTRUCTIONS TO VISIBILITY.

MSZ001>002-007>008-010>013-018>021-025>028-034>036-151700-
NORTHWEST MISSISSIPPI

CITY           SKY/WX    TMP DP  RH WIND       PRES   REMARKS
CLARKSDALE     FAIR      77  64  65 CALM      30.18F
CLEVELAND      FAIR      79  66  66 NE3       30.17S
GREENWOOD      PTSUNNY   81  66  60 CALM      30.16S
GREENVILLE     PTSUNNY   81  64  56 VRB5      30.16F
GRENADA        FAIR      79  64  61 CALM      30.17S
OLIVE BRANCH   PTSUNNY   77  64  65 NW8       30.19S
OXFORD         FAIR      75  64  69 NW6       30.20R
TUNICA         PTSUNNY   75  63  64 CALM      30.19S
$$

MSZ003>006-009-014>017-022>024-029>033-037>039-151700-
NORTHEAST MISSISSIPPI

CITY           SKY/WX    TMP DP  RH WIND       PRES   REMARKS
COLUMBUS AFB   MOSUNNY   82  70  66 W2        30.14F
CORINTH        FAIR      77  64  65 VRB3      30.17S
GOLDN TRIANGLE PTSUNNY   84  70  61 CALM      30.15F
STARKVILLE     FAIR      81  68  65 CALM      30.15S
TUPELO         MOSUNNY   82  65  56 N5        30.16F
$$

MSZ040-058-151700-
CENTRAL MISSISSIPPI

CITY           SKY/WX    TMP DP  RH WIND       PRES   REMARKS
JACKSON INTL   MOSUNNY   86  69  56 NW5       30.14S HX  90
JACKSON HAWKNS MOSUNNY   85  68  56 CALM      30.15S
MERIDIAN KEY   MOSUNNY   86  68  54 NE3       30.13F
MERIDIAN NAS   MOSUNNY   85  72  65 CALM      30.14F HX  91
RAYMOND        FAIR      84  81  89 S3        30.15S HX  98
VICKSBURG      SUNNY     85  68  56 E5        30.14F
$$

MSZ059>079-151700-
SOUTH MISSISSIPPI

CITY           SKY/WX    TMP DP  RH WIND       PRES   REMARKS
BROOKHAVEN     FAIR      84  73  70 CALM      30.16S HX  91
HATTIESBURG    SUNNY     87  74  64 CALM      30.13S HX  95
MCCOMB         MOSUNNY   86  71  60 NE5       30.13S HX  91
NATCHEZ        SUNNY     82  73  74 N5        30.14S
PINE BELT      SUNNY     86  73  66 N3        30.15R HX  93
$$

MSZ080>082-151700-
COASTAL MISSISSIPPI

CITY           SKY/WX    TMP DP  RH WIND       PRES   REMARKS
BAY ST LOUIS   PTSUNNY   88  72  58 SE7       30.11R HX  94
BILOXI         MOSUNNY   86  75  69 E6        30.11R HX  95
PASCAGOULA     PTSUNNY   86  74  67 E6        30.11S HX  94
GULFPORT       MOSUNNY   85  74  69 E6        30.11R HX  92
$$



USA.gov is the U.S. government's official web portal to all federal, state and local government web resources and services.